Regional Weather Roundup
Issued by NWS

Home | Current Version | Previous Version | Graphics & Text | Print | Product List | Glossary On
Versions: 1 2 3 4 5 6 7 8 9 10 11 12 13 14 15 16 17 18 19 20 21 22 23 24 25 26 27 28 29 30 31 32 33 34 35 36 37 38 39 40 41 42 43 44 45 46 47 48 49 50
000
ASUS43 KBIS 020501
RWRND

NORTH DAKOTA REGIONAL WEATHER ROUNDUP
NATIONAL WEATHER SERVICE BISMARCK ND
1100 PM CST SUN MAR 01 2015

NOTE: "FAIR" INDICATES FEW OR NO CLOUDS BELOW 12,000 FEET WITH NO
SIGNIFICANT WEATHER AND/OR OBSTRUCTIONS TO VISIBILITY.


NDZ001>003-009>011-017-020600-
NORTHWEST NORTH DAKOTA

CITY           SKY/WX    TMP DP  RH WIND       PRES   REMARKS
WILLISTON      PTCLDY    10   6  84 SE5       30.26F WCI   2
MINOT          PTCLDY     9   2  73 SW12      30.29S WCI  -6
$$

NDZ018>021-031>035-040>046-020600-
SOUTHWEST NORTH DAKOTA

CITY           SKY/WX    TMP DP  RH WIND       PRES   REMARKS
BISMARCK       PTCLDY     3  -2  79 CALM      30.37S
DICKINSON      CLEAR      7   3  84 S9        30.24F WCI  -7
GARRISON         N/A      6   1  80 CALM      30.31S
HETTINGER ARPT PTCLDY     2  -3  80 CALM      30.28F
$$

NDZ004>008-012>016-024-026-027-054-020600-
NORTHEAST NORTH DAKOTA

CITY           SKY/WX    TMP DP  RH WIND       PRES   REMARKS
GRAND FORKS    CLEAR     10   3  73 W10       30.36R WCI  -4
GRND FRKS AFB  CLEAR     11   3  71 W9        30.36R WCI  -2
DEVILS LAKE    CLEAR      7   0  72 W13       30.32S WCI  -9
$$

NDZ022-023-025-028>030-036>039-047>053-020600-
SOUTHEAST NORTH DAKOTA

CITY           SKY/WX    TMP DP  RH WIND       PRES   REMARKS
FARGO          PTCLDY     9   3  77 W9        30.40R WCI  -4
JAMESTOWN      PTCLDY     9   2  73 W7        30.35S WCI  -2
$$



USA.gov is the U.S. government's official web portal to all federal, state and local government web resources and services.